User: anonymous   Login
Location: Adrasan
(36.3319°N, 30.4314°E)
Time: 11:53:36
(UTC+00:00)
Language:

Cosmos 1655 Rocket - Orbit

View from above orbital plane
View from above orbital plane
View from above satellite
View from above satellite

Ground track
Ground track

The orbit data is extracted from the following two-line orbital elements,

1 15752U 85041B   24112.93482435  .00000121  00000-0  11426-3 0  9997
2 15752  82.9476 261.7729 0024345  18.3328 341.8699 13.73218661948802
Epoch (UTC): 21 April 2024 22:26:08
Eccentricity: 0.0024345
inclination: 82.9476°
perigee height: 970 km
apogee height: 1006 km
right ascension of ascending node: 261.7729°
argument of perigee: 18.3328°
revolutions per day: 13.73218661
mean anomaly at epoch: 341.8699°
orbit number at epoch: 94880

The dashed part of the orbit path shows where the satellite is in the earth's shadow,  

DLR